Flag for U.S.A. Weather past 2 weeks in Washington DC, District of Columbia, U.S.A.

Now
21 °F

Clear.


Feels Like: 8 °F
Forecast: 20 / 34 °F
Wind: 14 mph from Northwest

Location: Reagan National Airport

Current Time: Jan 31, 2015 at 8:17:04 AM

Latest Report: Jan 31, 2015 at 6:52 AM


Visibility: 10 mi

Pressure: 30.32 "Hg

Humidity: 45%

Dew point: 3 °F

Location of Washington DCLocation

Historic Weather in Washington DC — Graph

°F

Washington DC temperature yesterday

Maximum temperature yesterday: 43 °F (at 12:52 PM)
Minimum temperature yesterday: 23 °F (at 11:52 PM)
Average temperature yesterday: 36 °F

Past Weeks' High & Low Weather Summary

 TemperatureHumidityPressure
High51 °F (Jan 25, 10:52 AM)88% (Jan 21, 1:52 PM)30.44 "Hg (Jan 21, 1:52 PM)
Low21 °F (Jan 31, 3:52 AM)27% (Jan 28, 2:52 PM)29.46 "Hg (Jan 24, 1:52 PM)
Average37 °F60%30.03 "Hg
* Reported Jan 16 6:52 AM — Jan 31 6:52 AM, Washington DC, Weather by CustomWeather, © 2014

Note: Actual official high and low records may vary slightly from our data, if they occured in-between our weather recording intervals... More about our weather records

Advertising

Washington DC weather history for previous 24 hours

 ConditionsComfort  
Time TempWeatherWind HumidityBarometerVisibility
6:52 AM
Jan 31
21 °FClear.14 mph45%30.32 "Hg10 mi
5:52 AM21 °FClear.12 mph47%30.30 "Hg10 mi
4:52 AM21 °FClear.12 mph47%30.30 "Hg10 mi
3:52 AM21 °FClear.16 mph45%30.31 "Hg10 mi
2:52 AM22 °FClear.18 mph44%30.30 "Hg10 mi
1:52 AM22 °FClear.18 mph44%30.30 "Hg10 mi
12:52 AM23 °FClear.16 mph42%30.28 "Hg10 mi
11:52 PM
Jan 30
23 °FClear.15 mph42%30.27 "Hg10 mi
10:52 PM24 °FClear.15 mph42%30.27 "Hg10 mi
9:52 PM25 °FClear.17 mph40%30.26 "Hg10 mi
8:52 PM27 °FPassing clouds.20 mph41%30.25 "Hg10 mi
7:52 PM28 °FClear.22 mph39%30.23 "Hg10 mi
6:52 PM30 °FPassing clouds.25 mph40%30.20 "Hg10 mi
5:52 PM33 °FPassing clouds.24 mph38%30.18 "Hg10 mi
4:52 PM36 °FPassing clouds.21 mph37%30.14 "Hg10 mi
3:52 PM38 °FScattered clouds.24 mph37%30.11 "Hg10 mi
2:52 PM40 °FBroken clouds.22 mph33%30.07 "Hg10 mi
1:52 PM42 °FPartly sunny.26 mph32%30.05 "Hg10 mi
12:52 PM43 °FScattered clouds.15 mph29%30.04 "Hg10 mi
11:52 AM40 °FBroken clouds.16 mph47%30.05 "Hg10 mi
10:52 AM40 °FBroken clouds.15 mph65%30.05 "Hg10 mi
9:57 AM41 °FLight snow. Broken clouds.17 mph53%30.04 "Hg4 mi
8:52 AM41 °FPartly sunny.9 mph49%30.02 "Hg10 mi
Weather by CustomWeather, © 2014

See weather overviewHow to use our weather pages